| time (UTC) | temp F | wind direction | speed MPH | gust MPH | rain 1hr in | rain 24hr in | rain mn in | humidity % | barometer mb |
| 20260502193019 | 53 | 305 | 3.0 | 6.0 | 0.00 | 0.00 | 0.00 | 70 | 1022.5 |
| 20260502192512 | 53 | 332 | 3.0 | 6.0 | 0.00 | 0.00 | 0.00 | 70 | 1022.5 |
| 20260502192019 | 53 | 331 | 2.0 | 3.0 | 0.00 | 0.00 | 0.00 | 70 | 1022.5 |
| 20260502191513 | 53 | 297 | 2.0 | 3.0 | 0.00 | 0.00 | 0.00 | 70 | 1022.4 |
| 20260502191019 | 53 | 322 | 2.0 | 3.0 | 0.00 | 0.00 | 0.00 | 71 | 1022.3 |
| 20260502190012 | 53 | 330 | 2.0 | 3.0 | 0.00 | 0.00 | 0.00 | 71 | 1022.1 |
| 20260502185020 | 53 | 331 | 3.0 | 5.0 | 0.00 | 0.00 | 0.00 | 71 | 1021.9 |
| 20260502181513 | 54 | 332 | 3.0 | 3.0 | 0.00 | 0.00 | 0.00 | 69 | 1021.4 |
| 20260502170513 | 57 | 224 | 6.0 | 10.0 | 0.00 | 0.00 | 0.00 | 64 | 1020.8 |
| 20260502164020 | 58 | 263 | 7.0 | 13.0 | 0.00 | 0.00 | 0.00 | 62 | 1020.6 |
| 20260502162512 | 58 | 320 | 5.0 | 12.0 | 0.00 | 0.00 | 0.00 | 60 | 1020.5 |
| 20260502162021 | 57 | 247 | 7.0 | 12.0 | 0.00 | 0.00 | 0.00 | 61 | 1020.5 |
| 20260502160512 | 58 | 232 | 6.0 | 16.0 | 0.00 | 0.00 | 0.00 | 60 | 1020.4 |
| 20260502151020 | 60 | 256 | 10.0 | 17.0 | 0.00 | 0.00 | 0.00 | 55 | 1020.0 |
| 20260502150512 | 60 | 18 | 6.0 | 10.0 | 0.00 | 0.00 | 0.00 | 50 | 1019.8 |
| 20260502130513 | 62 | 122 | 3.0 | 8.0 | 0.00 | 0.00 | 0.00 | 44 | 1020.2 |
| 20260502123019 | 63 | 108 | 5.0 | 13.0 | 0.00 | 0.00 | 0.00 | 45 | 1020.4 |
| 20260502122021 | 64 | 87 | 6.0 | 13.0 | 0.00 | 0.00 | 0.00 | 43 | 1020.4 |
| 20260502121512 | 64 | 77 | 5.0 | 12.0 | 0.00 | 0.00 | 0.00 | 44 | 1020.5 |
| 20260502114512 | 63 | 312 | 6.0 | 13.0 | 0.00 | 0.00 | 0.00 | 39 | 1020.5 |
| 20260502113020 | 63 | 107 | 7.0 | 13.0 | 0.00 | 0.00 | 0.00 | 38 | 1020.5 |
| 20260502112512 | 63 | 69 | 7.0 | 10.0 | 0.00 | 0.00 | 0.00 | 40 | 1020.5 |
| 20260502112020 | 62 | 87 | 7.0 | 12.0 | 0.00 | 0.00 | 0.00 | 40 | 1020.5 |
| 20260502111021 | 62 | 27 | 6.0 | 12.0 | 0.00 | 0.00 | 0.00 | 40 | 1020.6 |
| 20260502104019 | 62 | 359 | 8.0 | 15.0 | 0.00 | 0.00 | 0.00 | 39 | 1020.8 |
| 20260502103513 | 63 | 25 | 9.0 | 15.0 | 0.00 | 0.00 | 0.00 | 39 | 1020.7 |
| 20260502101512 | 61 | 4 | 9.0 | 12.0 | 0.00 | 0.00 | 0.00 | 41 | 1020.8 |
| 20260502091512 | 60 | 48 | 6.0 | 12.0 | 0.00 | 0.00 | 0.00 | 41 | 1020.7 |
| 20260502090512 | 58 | 35 | 5.0 | 10.0 | 0.00 | 0.00 | 0.00 | 42 | 1020.8 |
| 20260502071512 | 55 | 75 | 7.0 | 14.0 | 0.00 | 0.00 | 0.00 | 47 | 1020.6 |
| 20260502071019 | 55 | 52 | 6.0 | 10.0 | 0.00 | 0.00 | 0.00 | 49 | 1020.6 |
| 20260502070511 | 55 | 24 | 6.0 | 13.0 | 0.00 | 0.00 | 0.00 | 50 | 1020.5 |
| 20260502065019 | 55 | 60 | 9.0 | 17.0 | 0.00 | 0.00 | 0.00 | 50 | 1020.5 |
| 20260502064512 | 55 | 62 | 6.0 | 13.0 | 0.00 | 0.00 | 0.00 | 52 | 1020.5 |
| 20260502063511 | 54 | 48 | 6.0 | 12.0 | 0.00 | 0.00 | 0.00 | 53 | 1020.4 |
| 20260502063020 | 54 | 98 | 7.0 | 13.0 | 0.00 | 0.00 | 0.00 | 53 | 1020.4 |
| 20260502062514 | 54 | 58 | 7.0 | 14.0 | 0.00 | 0.00 | 0.00 | 54 | 1020.4 |
| 20260502062019 | 54 | 10 | 10.0 | 16.0 | 0.00 | 0.00 | 0.00 | 53 | 1020.3 |
| 20260502061019 | 54 | 44 | 5.0 | 13.0 | 0.00 | 0.00 | 0.00 | 57 | 1020.3 |
| 20260502060511 | 53 | 11 | 9.0 | 14.0 | 0.00 | 0.00 | 0.00 | 57 | 1020.3 |
| 20260502054511 | 53 | 13 | 6.0 | 10.0 | 0.00 | 0.00 | 0.00 | 60 | 1020.1 |
| 20260502054020 | 53 | 341 | 6.0 | 12.0 | 0.00 | 0.00 | 0.00 | 61 | 1020.1 |
| 20260502052019 | 52 | 349 | 4.0 | 6.0 | 0.00 | 0.00 | 0.00 | 65 | 1020.1 |
| 20260502051512 | 52 | 359 | 5.0 | 8.0 | 0.00 | 0.00 | 0.00 | 66 | 1020.1 |
| 20260502051020 | 51 | 354 | 5.0 | 10.0 | 0.00 | 0.00 | 0.00 | 68 | 1020.1 |
| 20260502045512 | 49 | 318 | 2.0 | 3.0 | 0.00 | 0.00 | 0.00 | 71 | 1020.0 |
| 20260502044511 | 49 | 286 | 4.0 | 7.0 | 0.00 | 0.00 | 0.00 | 71 | 1020.0 |
| 20260502043020 | 49 | 347 | 2.0 | 3.0 | 0.00 | 0.00 | 0.00 | 71 | 1019.8 |
| 20260502041020 | 49 | 325 | 1.0 | 5.0 | 0.00 | 0.00 | 0.00 | 69 | 1019.8 |
| 20260502040012 | 49 | 354 | 3.0 | 5.0 | 0.00 | 0.00 | 0.00 | 69 | 1019.8 |
| 20260502034512 | 48 | 339 | 3.0 | 6.0 | 0.00 | 0.00 | 0.00 | 70 | 1019.8 |
| 20260502034019 | 48 | 16 | 5.0 | 8.0 | 0.00 | 0.00 | 0.00 | 70 | 1019.8 |
| 20260502033511 | 48 | 345 | 3.0 | 6.0 | 0.00 | 0.00 | 0.00 | 71 | 1019.7 |
| 20260502032018 | 49 | 318 | 2.0 | 3.0 | 0.00 | 0.00 | 0.00 | 70 | 1019.7 |
| 20260502030013 | 47 | 12 | 3.0 | 6.0 | 0.00 | 0.00 | 0.00 | 73 | 1019.7 |
| 20260502024018 | 47 | 303 | 2.0 | 3.0 | 0.00 | 0.00 | 0.00 | 75 | 1019.9 |
| 20260502023512 | 47 | 308 | 2.0 | 6.0 | 0.00 | 0.00 | 0.00 | 76 | 1020.0 |
| 20260502022511 | 46 | 287 | 2.0 | 3.0 | 0.00 | 0.00 | 0.00 | 78 | 1020.1 |
| 20260502021511 | 46 | 275 | 3.0 | 3.0 | 0.00 | 0.00 | 0.00 | 80 | 1020.1 |
| 20260502021018 | 46 | 270 | 2.0 | 7.0 | 0.00 | 0.00 | 0.00 | 80 | 1020.1 |
| 20260502020511 | 46 | 276 | 5.0 | 8.0 | 0.00 | 0.00 | 0.00 | 80 | 1020.1 |
| 20260502015511 | 47 | 269 | 5.0 | 8.0 | 0.00 | 0.00 | 0.00 | 82 | 1020.1 |
| 20260502014513 | 48 | 266 | 2.0 | 3.0 | 0.00 | 0.00 | 0.00 | 85 | 1020.1 |
| 20260502013511 | 48 | 301 | 1.0 | 3.0 | 0.00 | 0.00 | 0.00 | 85 | 1020.1 |
| 20260502013017 | 48 | 325 | 1.0 | 2.0 | 0.00 | 0.00 | 0.00 | 85 | 1020.1 |
| 20260502012017 | 48 | 343 | 0.0 | 1.0 | 0.00 | 0.00 | 0.00 | 86 | 1020.1 |
| 20260502010511 | 49 | 359 | 1.0 | 2.0 | 0.00 | 0.00 | 0.00 | 86 | 1020.2 |
| 20260502010011 | 49 | 318 | 0.0 | 1.0 | 0.00 | 0.00 | 0.00 | 86 | 1020.2 |
| 20260502005018 | 49 | 359 | 1.0 | 2.0 | 0.00 | 0.00 | 0.00 | 86 | 1020.2 |
| 20260502004019 | 50 | 283 | 1.0 | 2.0 | 0.00 | 0.00 | 0.00 | 85 | 1020.1 |
| 20260502003511 | 50 | 359 | 0.0 | 1.0 | 0.00 | 0.00 | 0.00 | 86 | 1020.1 |
| 20260502003018 | 50 | 305 | 1.0 | 2.0 | 0.00 | 0.00 | 0.00 | 85 | 1020.2 |
| 20260502002511 | 50 | 290 | 1.0 | 3.0 | 0.00 | 0.00 | 0.00 | 85 | 1020.2 |
| 20260502002017 | 50 | 343 | 1.0 | 3.0 | 0.00 | 0.00 | 0.00 | 85 | 1020.2 |
| 20260502001511 | 50 | 8 | 1.0 | 3.0 | 0.00 | 0.00 | 0.00 | 85 | 1020.2 |
| 20260502000511 | 50 | 359 | 1.0 | 3.0 | 0.00 | 0.00 | 0.00 | 85 | 1020.2 |
| 20260501235017 | 51 | 50 | 2.0 | 3.0 | 0.00 | 0.00 | 0.00 | 85 | 1020.2 |
| 20260501234018 | 51 | 42 | 2.0 | 3.0 | 0.00 | 0.00 | 0.00 | 85 | 1020.3 |
| 20260501232511 | 51 | 77 | 2.0 | 5.0 | 0.00 | 0.00 | 0.00 | 85 | 1020.3 |
| 20260501232019 | 51 | 64 | 2.0 | 3.0 | 0.00 | 0.00 | 0.00 | 85 | 1020.4 |
| 20260501231510 | 51 | 73 | 2.0 | 5.0 | 0.00 | 0.00 | 0.00 | 86 | 1020.5 |
| 20260501225018 | 51 | 61 | 2.0 | 3.0 | 0.00 | 0.00 | 0.00 | 86 | 1020.7 |
| 20260501224511 | 51 | 68 | 3.0 | 6.0 | 0.00 | 0.00 | 0.00 | 86 | 1020.7 |
| 20260501222511 | 51 | 61 | 2.0 | 5.0 | 0.00 | 0.00 | 0.00 | 87 | 1020.8 |
| 20260501222017 | 51 | 51 | 3.0 | 5.0 | 0.00 | 0.00 | 0.00 | 87 | 1020.7 |
| 20260501221511 | 51 | 87 | 2.0 | 5.0 | 0.00 | 0.00 | 0.00 | 87 | 1020.8 |
| 20260501221017 | 51 | 59 | 2.0 | 3.0 | 0.00 | 0.00 | 0.00 | 87 | 1020.8 |
| 20260501220510 | 51 | 60 | 2.0 | 6.0 | 0.00 | 0.00 | 0.00 | 87 | 1020.7 |
| 20260501220013 | 51 | 91 | 2.0 | 3.0 | 0.00 | 0.00 | 0.00 | 87 | 1020.7 |
| 20260501215511 | 51 | 54 | 3.0 | 6.0 | 0.00 | 0.00 | 0.00 | 87 | 1020.7 |
| 20260501215017 | 51 | 48 | 4.0 | 7.0 | 0.00 | 0.00 | 0.00 | 87 | 1020.7 |
| 20260501214511 | 51 | 77 | 3.0 | 6.0 | 0.00 | 0.00 | 0.00 | 87 | 1020.7 |
| 20260501213512 | 51 | 83 | 3.0 | 3.0 | 0.00 | 0.00 | 0.00 | 87 | 1020.6 |
| 20260501212511 | 51 | 24 | 2.0 | 3.0 | 0.00 | 0.00 | 0.00 | 87 | 1020.4 |
| 20260501212017 | 51 | 54 | 2.0 | 5.0 | 0.00 | 0.00 | 0.00 | 86 | 1020.3 |
| 20260501211017 | 51 | 65 | 2.0 | 3.0 | 0.00 | 0.00 | 0.00 | 86 | 1020.3 |
| 20260501210510 | 52 | 73 | 3.0 | 3.0 | 0.00 | 0.00 | 0.00 | 87 | 1020.3 |
| 20260501210010 | 52 | 85 | 3.0 | 7.0 | 0.00 | 0.00 | 0.00 | 87 | 1020.2 |
| 20260501205511 | 52 | 65 | 2.0 | 3.0 | 0.00 | 0.00 | 0.00 | 87 | 1020.1 |
| 20260501205018 | 52 | 66 | 3.0 | 6.0 | 0.00 | 0.00 | 0.00 | 87 | 1020.3 |
| 20260501204510 | 52 | 73 | 3.0 | 6.0 | 0.00 | 0.00 | 0.00 | 86 | 1020.2 |
| 20260501202512 | 52 | 61 | 3.0 | 5.0 | 0.00 | 0.00 | 0.00 | 86 | 1020.1 |
| 20260501201511 | 52 | 100 | 3.0 | 10.0 | 0.00 | 0.00 | 0.00 | 86 | 1020.0 |
| 20260501194514 | 53 | 106 | 4.0 | 7.0 | 0.00 | 0.00 | 0.00 | 85 | 1019.9 |